This demonstration page uses our WeatherBlox Daily Observations layout. Learn more.

38.88101, -77.10428

Hourly Observations for January 11, 2020

Temp ( °F °C ) Dew Point ( °F °C ) Humidity (%) Winds ( mph kmh ) Pressure ( in mb ) Visibility ( mi km ) Precip ( " mm )
12:52 am 00:52 Cloudy 52 11.1 46 7.8 80 80 S 6 9 30.39 1029 10 16.0934 0 0
1:52 am 01:52 Cloudy 49 9.4 46 7.8 90 90 S 3 6 30.37 1029 10 16.0934 0 0
2:52 am 02:52 Cloudy 50 10 46 7.8 86 86 SW 5 7 30.37 1028 10 16.0934 0 0
3:52 am 03:52 Cloudy 48 8.9 45 7.2 89 89 Calm 30.35 1028 10 16.0934 0 0
4:52 am 04:52 Cloudy 50 10 47 8.3 89 89 Calm 30.33 1027 10 16.0934 0 0
5:52 am 05:52 Cloudy 51 10.6 47 8.3 86 86 S 7 11 30.3 1026 10 16.0934 0 0
6:52 am 06:52 Cloudy 56 13.3 51 10.6 84 84 S 12 19 30.29 1026 10 16.0934 0 0
7:52 am 07:52 Cloudy 53 11.7 49 9.4 86 86 S 14 22 30.27 1025 10 16.0934 0 0
8:52 am 08:52 Cloudy 54 12.2 49 9.4 83 83 S 13 20 30.27 1025 10 16.0934 0 0
9:52 am 09:52 Cloudy 55 12.8 50 10 83 83 S 15 24 30.25 1024 10 16.0934 0 0
10:52 am 10:52 Cloudy 60 15.6 52 11.1 75 75 S 14 22 30.23 1024 10 16.0934 0 0
11:52 am 11:52 Cloudy 68 20 56 13.3 65 65 S 16 26 30.18 1022 10 16.0934 0 0
12:52 pm 12:52 Cloudy 69 20.6 57 13.9 66 66 SSW 18 30 30.14 1021 10 16.0934 0 0
1:52 pm 13:52 Cloudy 70 21.1 58 14.4 66 66 SSW 21 33 30.11 1020 10 16.0934 0 0
2:52 pm 14:52 Cloudy 72 22.2 58 14.4 61 61 SSW 25 41 30.07 1018 10 16.0934 0 0
3:52 pm 15:52 Mostly Cloudy 72 22.2 58 14.4 61 61 SSW 22 35 30.05 1018 10 16.0934 0 0
4:52 pm 16:52 Mostly Cloudy 70 21.1 58 14.4 66 66 S 22 35 30.05 1018 10 16.0934 0 0
5:52 pm 17:52 Cloudy 65 18.3 57 13.9 76 76 S 18 30 30.04 1017 10 16.0934 0 0
6:40 pm 18:40 Cloudy 68 20 61 16.1 78 78 SSW 20 31 30.06 1018 10 16.0934 0 0
6:52 pm 18:52 Cloudy 67 19.4 61 16.1 81 81 SSW 20 31 30.05 1018 10 16.0934 0 0
7:29 pm 19:29 Cloudy 67 19.4 62 16.7 84 84 SSW 16 26 30.04 1017 10 16.0934 0 0
7:52 pm 19:52 Cloudy 64 17.8 60 15.6 87 87 S 12 19 30.03 1017 10 16.0934 0 0
8:52 pm 20:52 Cloudy 61 16.1 58 14.4 90 90 S 16 26 30.01 1016 10 16.0934 0 0
9:05 pm 21:05 Cloudy 61 16.1 58 14.4 90 90 S 15 24 30 1016 10 16.0934 0 0
9:52 pm 21:52 Cloudy 62 16.7 58 14.4 86 86 S 16 26 29.98 1015 10 16.0934 0 0
10:52 pm 22:52 Cloudy 66 18.9 61 16.1 84 84 S 17 28 29.96 1015 10 16.0934 0 0
11:52 pm 23:52 Cloudy 63 17.2 58 14.4 84 84 S 18 30 29.91 1013 10 16.0934 0 0

Powered by AerisWeather